STARLINK-2444

decayed
NORAD ID: 48108 Int'l Des: 2021-027 Owner: SPXS Country: US Constellation: starlink
LEOCIRCULAR
グループ

STARLINK-2444について

説明を読み込み中...

高度履歴

Altitude vs Time

uPlot chart will show altitude changes over time

軌道要素

1 48108U 21027S 24175.80475568 .19093806 12145-4 26406-2 0 9998
2 48108 53.0218 37.3183 0006952 239.1574 206.3898 16.34279667178755
Epoch: Jun 23, 2024 • Age: 10623 hours

現在のステータス

Position data unavailable
打ち上げ日 Apr 7, 2021
運用期間 4.4 years
落下予定日 Jun 23, 2024
タイプ internet

技術仕様

分類 Payload
質量 260.00 kg
乾燥質量 248.00 kg
総質量 260.00 kg
長さ 0.20 m
直径 2.80 m
スパン 9.00 m
形状 Box + pan
製造者 SPXS
バスタイプ Starlink
フェーズステータス Reentered
所有者/国 SPXS/US

大規模コンステレーション

Loading constellations...